| time (UTC) | temp F | wind direction | speed MPH | gust MPH | rain 1hr in | rain 24hr in | rain mn in | humidity % | barometer mb |
| 20260510130534 | 54 | 91 | 2.0 | 0.0 | 0.00 | 0.00 | 0.00 | 96 | 1010.8 |
| 20260510130034 | 54 | 99 | 2.0 | 0.0 | 0.00 | 0.00 | 0.00 | 96 | 1010.8 |
| 20260510125533 | 54 | 55 | 2.0 | 0.0 | 0.00 | 0.00 | 0.00 | 96 | 1010.7 |
| 20260510125035 | 54 | 71 | 1.0 | 0.0 | 0.00 | 0.00 | 0.00 | 96 | 1010.7 |
| 20260510124534 | 54 | 19 | 1.0 | 0.0 | 0.00 | 0.00 | 0.00 | 96 | 1010.7 |
| 20260510124033 | 54 | 27 | 1.0 | 0.0 | 0.00 | 0.00 | 0.00 | 96 | 1010.8 |
| 20260510123533 | 54 | 55 | 1.0 | 0.0 | 0.00 | 0.00 | 0.00 | 96 | 1010.8 |
| 20260510123035 | 54 | 55 | 1.0 | 0.0 | 0.00 | 0.00 | 0.00 | 96 | 1010.8 |
| 20260510122532 | 54 | 51 | 1.0 | 0.0 | 0.00 | 0.00 | 0.00 | 96 | 1010.8 |
| 20260510122034 | 54 | 157 | 1.0 | 0.0 | 0.00 | 0.00 | 0.00 | 95 | 1010.8 |
| 20260510121533 | 54 | 63 | 0.0 | 0.0 | 0.00 | 0.00 | 0.00 | 96 | 1010.8 |
| 20260510121033 | 54 | 99 | 1.0 | 0.0 | 0.00 | 0.00 | 0.00 | 95 | 1010.8 |
| 20260510120533 | 54 | 99 | 1.0 | 0.0 | 0.00 | 0.00 | 0.00 | 95 | 1010.8 |
| 20260510120032 | 54 | 109 | 1.0 | 0.0 | 0.00 | 0.00 | 0.00 | 96 | 1010.8 |
| 20260510115531 | 53 | 81 | 1.0 | 0.0 | 0.00 | 0.00 | 0.00 | 96 | 1010.8 |
| 20260510115031 | 53 | 75 | 1.0 | 0.0 | 0.00 | 0.00 | 0.00 | 95 | 1010.8 |
| 20260510114537 | 53 | 65 | 1.0 | 0.0 | 0.00 | 0.00 | 0.00 | 95 | 1010.8 |
| 20260510114031 | 53 | 79 | 1.0 | 0.0 | 0.00 | 0.00 | 0.00 | 95 | 1010.7 |
| 20260510113532 | 53 | 29 | 1.0 | 0.0 | 0.00 | 0.00 | 0.00 | 95 | 1010.7 |
| 20260510113035 | 53 | 360 | 2.0 | 0.0 | 0.00 | 0.00 | 0.00 | 95 | 1010.7 |
| 20260510112530 | 53 | 44 | 1.0 | 0.0 | 0.00 | 0.00 | 0.00 | 95 | 1010.7 |
| 20260510112029 | 54 | 88 | 0.0 | 0.0 | 0.00 | 0.00 | 0.00 | 95 | 1010.7 |
| 20260510111530 | 53 | 30 | 1.0 | 0.0 | 0.00 | 0.00 | 0.00 | 95 | 1010.7 |
| 20260510111029 | 53 | 355 | 3.0 | 0.0 | 0.00 | 0.00 | 0.00 | 95 | 1010.7 |
| 20260510110528 | 54 | 5 | 2.0 | 0.0 | 0.00 | 0.00 | 0.00 | 95 | 1010.7 |
| 20260510110028 | 54 | 46 | 1.0 | 0.0 | 0.00 | 0.00 | 0.00 | 95 | 1010.7 |
| 20260510105528 | 54 | 25 | 2.0 | 0.0 | 0.00 | 0.00 | 0.00 | 95 | 1010.7 |
| 20260510105027 | 54 | 43 | 2.0 | 0.0 | 0.00 | 0.00 | 0.00 | 95 | 1010.7 |
| 20260510104533 | 54 | 25 | 2.0 | 0.0 | 0.00 | 0.00 | 0.00 | 95 | 1010.7 |
| 20260510104026 | 54 | 55 | 2.0 | 0.0 | 0.00 | 0.00 | 0.00 | 95 | 1010.7 |
| 20260510103528 | 54 | 51 | 2.0 | 0.0 | 0.00 | 0.00 | 0.00 | 95 | 1010.7 |
| 20260510103028 | 54 | 65 | 1.0 | 0.0 | 0.00 | 0.00 | 0.00 | 95 | 1010.7 |
| 20260510102527 | 54 | 133 | 0.0 | 0.0 | 0.00 | 0.00 | 0.00 | 95 | 1010.6 |
| 20260510102027 | 54 | 133 | 0.0 | 0.0 | 0.00 | 0.00 | 0.00 | 95 | 1010.6 |
| 20260510101526 | 54 | 133 | 0.0 | 0.0 | 0.00 | 0.00 | 0.00 | 95 | 1010.6 |
| 20260510101026 | 54 | 132 | 0.0 | 0.0 | 0.00 | 0.00 | 0.00 | 95 | 1010.9 |
| 20260510100525 | 54 | 257 | 0.0 | 0.0 | 0.00 | 0.00 | 0.00 | 95 | 1010.9 |
| 20260510100024 | 54 | 257 | 0.0 | 0.0 | 0.00 | 0.00 | 0.00 | 95 | 1010.9 |
| 20260510095524 | 54 | 123 | 0.0 | 0.0 | 0.00 | 0.00 | 0.00 | 95 | 1010.9 |
| 20260510095023 | 54 | 123 | 0.0 | 0.0 | 0.00 | 0.00 | 0.00 | 95 | 1010.9 |
| 20260510094534 | 54 | 123 | 0.0 | 0.0 | 0.00 | 0.00 | 0.00 | 95 | 1010.9 |
| 20260510094023 | 54 | 123 | 0.0 | 0.0 | 0.00 | 0.00 | 0.00 | 95 | 1010.9 |
| 20260510093523 | 54 | 123 | 0.0 | 0.0 | 0.00 | 0.00 | 0.00 | 95 | 1010.9 |
| 20260510093023 | 54 | 123 | 0.0 | 0.0 | 0.00 | 0.00 | 0.00 | 95 | 1010.9 |
| 20260510092523 | 54 | 123 | 0.0 | 0.0 | 0.00 | 0.00 | 0.00 | 95 | 1010.9 |
| 20260510092022 | 54 | 123 | 0.0 | 0.0 | 0.00 | 0.00 | 0.00 | 95 | 1010.9 |
| 20260510091523 | 54 | 123 | 1.0 | 0.0 | 0.00 | 0.00 | 0.00 | 95 | 1010.9 |
| 20260510091023 | 54 | 123 | 0.0 | 0.0 | 0.00 | 0.00 | 0.00 | 95 | 1010.9 |
| 20260510090522 | 54 | 123 | 0.0 | 0.0 | 0.00 | 0.00 | 0.00 | 95 | 1010.9 |
| 20260510090022 | 54 | 25 | 0.0 | 0.0 | 0.00 | 0.00 | 0.00 | 95 | 1010.9 |
| 20260510085521 | 54 | 25 | 0.0 | 0.0 | 0.00 | 0.00 | 0.00 | 95 | 1010.9 |
| 20260510085021 | 54 | 126 | 1.0 | 0.0 | 0.00 | 0.00 | 0.00 | 95 | 1010.9 |
| 20260510084521 | 54 | 126 | 1.0 | 0.0 | 0.00 | 0.00 | 0.00 | 95 | 1010.9 |
| 20260510084022 | 54 | 121 | 0.0 | 0.0 | 0.00 | 0.00 | 0.00 | 95 | 1010.9 |
| 20260510083521 | 54 | 121 | 0.0 | 0.0 | 0.00 | 0.00 | 0.00 | 95 | 1010.9 |
| 20260510083021 | 54 | 134 | 0.0 | 0.0 | 0.00 | 0.00 | 0.00 | 95 | 1010.9 |
| 20260510082521 | 54 | 134 | 0.0 | 0.0 | 0.00 | 0.00 | 0.00 | 95 | 1011.0 |
| 20260510082024 | 54 | 134 | 1.0 | 0.0 | 0.00 | 0.00 | 0.00 | 95 | 1011.0 |
| 20260510081533 | 55 | 136 | 1.0 | 0.0 | 0.00 | 0.00 | 0.00 | 95 | 1011.0 |
| 20260510081019 | 55 | 134 | 1.0 | 0.0 | 0.00 | 0.00 | 0.00 | 95 | 1011.3 |
| 20260510080518 | 55 | 119 | 0.0 | 0.0 | 0.00 | 0.00 | 0.00 | 95 | 1011.3 |
| 20260510080025 | 55 | 119 | 0.0 | 0.0 | 0.00 | 0.00 | 0.00 | 95 | 1011.3 |
| 20260510075521 | 55 | 119 | 1.0 | 0.0 | 0.00 | 0.00 | 0.00 | 95 | 1011.4 |
| 20260510075018 | 55 | 119 | 1.0 | 0.0 | 0.00 | 0.00 | 0.00 | 95 | 1011.4 |
| 20260510074518 | 55 | 119 | 1.0 | 0.0 | 0.00 | 0.00 | 0.00 | 95 | 1011.4 |
| 20260510074017 | 55 | 98 | 1.0 | 0.0 | 0.00 | 0.00 | 0.00 | 95 | 1011.6 |
| 20260510073517 | 55 | 141 | 1.0 | 0.0 | 0.00 | 0.00 | 0.00 | 95 | 1011.6 |
| 20260510073017 | 55 | 123 | 1.0 | 0.0 | 0.00 | 0.00 | 0.00 | 95 | 1011.6 |
| 20260510072517 | 55 | 150 | 1.0 | 0.0 | 0.00 | 0.00 | 0.00 | 95 | 1011.6 |
| 20260510072017 | 55 | 146 | 1.0 | 0.0 | 0.00 | 0.00 | 0.00 | 95 | 1011.6 |
| 20260510071516 | 55 | 141 | 1.0 | 0.0 | 0.00 | 0.00 | 0.00 | 95 | 1011.6 |
| 20260510071015 | 55 | 141 | 1.0 | 0.0 | 0.00 | 0.00 | 0.00 | 95 | 1011.6 |
| 20260510070518 | 55 | 150 | 1.0 | 0.0 | 0.00 | 0.00 | 0.00 | 95 | 1011.6 |
| 20260510070016 | 55 | 190 | 0.0 | 0.0 | 0.00 | 0.00 | 0.00 | 95 | 1011.6 |
| 20260510065515 | 55 | 153 | 1.0 | 0.0 | 0.00 | 0.00 | 0.00 | 94 | 1011.6 |
| 20260510065015 | 55 | 125 | 1.0 | 0.0 | 0.00 | 0.00 | 0.00 | 94 | 1011.6 |
| 20260510064519 | 55 | 127 | 1.0 | 0.0 | 0.00 | 0.00 | 0.00 | 94 | 1011.6 |
| 20260510064014 | 55 | 122 | 1.0 | 0.0 | 0.00 | 0.00 | 0.00 | 94 | 1011.6 |
| 20260510063514 | 55 | 92 | 1.0 | 0.0 | 0.00 | 0.00 | 0.00 | 94 | 1011.6 |
| 20260510063017 | 55 | 88 | 1.0 | 0.0 | 0.00 | 0.00 | 0.00 | 94 | 1011.6 |
| 20260510062513 | 55 | 61 | 1.0 | 0.0 | 0.00 | 0.00 | 0.00 | 94 | 1011.5 |
| 20260510062018 | 55 | 65 | 1.0 | 0.0 | 0.00 | 0.00 | 0.00 | 94 | 1011.5 |
| 20260510061523 | 55 | 54 | 1.0 | 0.0 | 0.00 | 0.00 | 0.00 | 94 | 1011.5 |
| 20260510061014 | 55 | 54 | 1.0 | 0.0 | 0.00 | 0.00 | 0.00 | 94 | 1011.6 |
| 20260510060517 | 55 | 54 | 1.0 | 0.0 | 0.00 | 0.00 | 0.00 | 94 | 1011.6 |
| 20260510060012 | 55 | 115 | 0.0 | 0.0 | 0.00 | 0.00 | 0.00 | 94 | 1011.6 |
| 20260510055512 | 54 | 115 | 0.0 | 0.0 | 0.00 | 0.00 | 0.00 | 94 | 1011.7 |
| 20260510055013 | 55 | 115 | 1.0 | 0.0 | 0.00 | 0.00 | 0.00 | 94 | 1011.7 |
| 20260510054513 | 55 | 130 | 0.0 | 0.0 | 0.00 | 0.00 | 0.00 | 94 | 1011.7 |
| 20260510054012 | 55 | 186 | 0.0 | 0.0 | 0.00 | 0.00 | 0.00 | 94 | 1011.7 |
| 20260510053512 | 55 | 186 | 0.0 | 0.0 | 0.00 | 0.00 | 0.00 | 94 | 1011.7 |
| 20260510053012 | 55 | 186 | 1.0 | 0.0 | 0.00 | 0.00 | 0.00 | 94 | 1011.7 |
| 20260510052512 | 55 | 186 | 1.0 | 0.0 | 0.00 | 0.00 | 0.00 | 94 | 1011.7 |
| 20260510052012 | 55 | 179 | 1.0 | 0.0 | 0.00 | 0.00 | 0.00 | 94 | 1011.7 |
| 20260510051526 | 55 | 179 | 0.0 | 0.0 | 0.00 | 0.00 | 0.00 | 94 | 1011.7 |
| 20260510051012 | 54 | 179 | 0.0 | 0.0 | 0.00 | 0.00 | 0.00 | 94 | 1011.8 |
| 20260510050511 | 55 | 179 | 0.0 | 0.0 | 0.00 | 0.00 | 0.00 | 93 | 1011.8 |
| 20260510050011 | 55 | 179 | 0.0 | 0.0 | 0.00 | 0.00 | 0.00 | 93 | 1011.8 |
| 20260510045515 | 55 | 179 | 1.0 | 0.0 | 0.00 | 0.00 | 0.00 | 93 | 1011.8 |
| 20260510045011 | 55 | 179 | 1.0 | 0.0 | 0.00 | 0.00 | 0.00 | 93 | 1011.8 |
| 20260510044512 | 55 | 211 | 0.0 | 0.0 | 0.00 | 0.00 | 0.00 | 93 | 1011.8 |
| 20260510044011 | 56 | 225 | 0.0 | 0.0 | 0.00 | 0.00 | 0.00 | 93 | 1011.6 |
| 20260510043511 | 56 | 225 | 0.0 | 0.0 | 0.00 | 0.00 | 0.00 | 93 | 1011.6 |
| 20260510043019 | 56 | 225 | 0.0 | 0.0 | 0.00 | 0.00 | 0.00 | 93 | 1011.6 |
| 20260510042511 | 56 | 225 | 0.0 | 0.0 | 0.00 | 0.00 | 0.00 | 93 | 1011.5 |
| 20260510042010 | 56 | 225 | 0.0 | 0.0 | 0.00 | 0.00 | 0.00 | 93 | 1011.5 |
| 20260510041510 | 56 | 225 | 0.0 | 0.0 | 0.00 | 0.00 | 0.00 | 93 | 1011.5 |
| 20260510041010 | 57 | 225 | 0.0 | 0.0 | 0.00 | 0.00 | 0.00 | 92 | 1011.3 |
| 20260510040510 | 57 | 225 | 0.0 | 0.0 | 0.00 | 0.00 | 0.00 | 92 | 1011.3 |
| 20260510040010 | 57 | 225 | 0.0 | 0.0 | 0.00 | 0.00 | 0.00 | 92 | 1011.3 |
| 20260510035509 | 57 | 225 | 0.0 | 0.0 | 0.00 | 0.00 | 0.00 | 92 | 1011.2 |
| 20260510035013 | 57 | 225 | 0.0 | 0.0 | 0.00 | 0.00 | 0.00 | 92 | 1011.2 |
| 20260510034509 | 57 | 225 | 0.0 | 0.0 | 0.00 | 0.00 | 0.00 | 92 | 1011.2 |
| 20260510034012 | 57 | 225 | 0.0 | 0.0 | 0.00 | 0.00 | 0.00 | 92 | 1010.9 |
| 20260510033509 | 57 | 225 | 0.0 | 0.0 | 0.00 | 0.00 | 0.00 | 92 | 1010.9 |
| 20260510033009 | 57 | 225 | 0.0 | 0.0 | 0.00 | 0.00 | 0.00 | 92 | 1010.9 |
| 20260510032512 | 57 | 225 | 0.0 | 0.0 | 0.00 | 0.00 | 0.00 | 91 | 1010.7 |
| 20260510032009 | 57 | 225 | 0.0 | 0.0 | 0.00 | 0.00 | 0.00 | 91 | 1010.7 |
| 20260510031509 | 58 | 225 | 0.0 | 0.0 | 0.00 | 0.00 | 0.00 | 90 | 1010.7 |
| 20260510031009 | 58 | 225 | 1.0 | 0.0 | 0.00 | 0.00 | 0.00 | 90 | 1010.6 |
| 20260510030510 | 58 | 225 | 1.0 | 0.0 | 0.00 | 0.00 | 0.00 | 89 | 1010.6 |
| 20260510030012 | 59 | 203 | 0.0 | 0.0 | 0.00 | 0.00 | 0.00 | 88 | 1010.6 |
| 20260510025508 | 59 | 203 | 1.0 | 0.0 | 0.00 | 0.00 | 0.00 | 88 | 1010.4 |
| 20260510025008 | 60 | 203 | 1.0 | 0.0 | 0.00 | 0.00 | 0.00 | 87 | 1010.4 |
| 20260510024508 | 60 | 200 | 1.0 | 0.0 | 0.00 | 0.00 | 0.00 | 87 | 1010.4 |
| 20260510024009 | 60 | 270 | 0.0 | 0.0 | 0.00 | 0.00 | 0.00 | 86 | 1010.3 |
| 20260510023507 | 61 | 270 | 0.0 | 0.0 | 0.00 | 0.00 | 0.00 | 85 | 1010.3 |
| 20260510023007 | 61 | 270 | 1.0 | 0.0 | 0.00 | 0.00 | 0.00 | 84 | 1010.3 |
| 20260510022511 | 62 | 197 | 1.0 | 0.0 | 0.00 | 0.00 | 0.00 | 83 | 1010.2 |
| 20260510022008 | 63 | 197 | 2.0 | 0.0 | 0.00 | 0.00 | 0.00 | 83 | 1010.2 |
| 20260510021513 | 63 | 227 | 1.0 | 0.0 | 0.00 | 0.00 | 0.00 | 82 | 1010.2 |
| 20260510021007 | 64 | 205 | 1.0 | 0.0 | 0.00 | 0.00 | 0.00 | 82 | 1010.0 |
| 20260510020506 | 64 | 165 | 1.0 | 0.0 | 0.00 | 0.00 | 0.00 | 82 | 1010.0 |
| 20260510020006 | 64 | 165 | 0.0 | 0.0 | 0.00 | 0.00 | 0.00 | 82 | 1009.9 |
| 20260510015508 | 64 | 190 | 1.0 | 0.0 | 0.00 | 0.00 | 0.00 | 82 | 1009.9 |
| 20260510015006 | 64 | 156 | 2.0 | 0.0 | 0.00 | 0.00 | 0.00 | 81 | 1009.9 |
| 20260510014506 | 65 | 175 | 1.0 | 0.0 | 0.00 | 0.00 | 0.00 | 80 | 1009.7 |
| 20260510014006 | 65 | 219 | 1.0 | 0.0 | 0.00 | 0.00 | 0.00 | 79 | 1009.7 |
| 20260510013506 | 66 | 193 | 1.0 | 0.0 | 0.00 | 0.00 | 0.00 | 78 | 1009.7 |
| 20260510013006 | 66 | 169 | 1.0 | 0.0 | 0.00 | 0.00 | 0.00 | 78 | 1009.7 |
| 20260510012505 | 67 | 274 | 1.0 | 0.0 | 0.00 | 0.00 | 0.00 | 78 | 1009.7 |
| 20260510012005 | 67 | 165 | 2.0 | 0.0 | 0.00 | 0.00 | 0.00 | 77 | 1009.7 |
| 20260510011506 | 67 | 180 | 2.0 | 0.0 | 0.00 | 0.00 | 0.00 | 77 | 1009.7 |
| 20260510011005 | 68 | 179 | 2.0 | 0.0 | 0.00 | 0.00 | 0.00 | 76 | 1009.7 |
| 20260510010505 | 68 | 169 | 2.0 | 0.0 | 0.00 | 0.00 | 0.00 | 77 | 1009.7 |
| 20260510010005 | 67 | 168 | 2.0 | 0.0 | 0.00 | 0.00 | 0.00 | 77 | 1009.7 |
| 20260510005505 | 67 | 186 | 2.0 | 0.0 | 0.00 | 0.00 | 0.00 | 77 | 1009.7 |
| 20260510005006 | 67 | 161 | 2.0 | 0.0 | 0.00 | 0.00 | 0.00 | 78 | 1009.7 |
| 20260510004504 | 67 | 164 | 2.0 | 0.0 | 0.00 | 0.00 | 0.00 | 79 | 1009.8 |
| 20260510004007 | 67 | 156 | 2.0 | 0.0 | 0.00 | 0.00 | 0.00 | 80 | 1009.8 |
| 20260510003504 | 67 | 195 | 2.0 | 0.0 | 0.00 | 0.00 | 0.00 | 78 | 1009.8 |
| 20260510003004 | 67 | 153 | 3.0 | 0.0 | 0.00 | 0.00 | 0.00 | 78 | 1009.9 |
| 20260510002505 | 67 | 190 | 3.0 | 0.0 | 0.00 | 0.00 | 0.00 | 77 | 1009.9 |
| 20260510002003 | 68 | 159 | 3.0 | 0.0 | 0.00 | 0.00 | 0.00 | 77 | 1009.9 |
| 20260510001506 | 68 | 200 | 3.0 | 0.0 | 0.00 | 0.00 | 0.00 | 77 | 1009.9 |
| 20260510001003 | 68 | 165 | 2.0 | 0.0 | 0.00 | 0.00 | 0.00 | 76 | 1009.9 |
| 20260510000502 | 68 | 211 | 2.0 | 0.0 | 0.00 | 0.00 | 0.00 | 76 | 1009.9 |
| 20260510000004 | 68 | 126 | 2.0 | 0.0 | 0.00 | 0.00 | 0.00 | 78 | 1010.0 |
| 20260509235501 | 68 | 133 | 2.0 | 0.0 | 0.00 | 0.00 | 0.00 | 77 | 1010.0 |
| 20260509235001 | 68 | 126 | 2.0 | 0.0 | 0.00 | 0.00 | 0.00 | 77 | 1010.0 |
| 20260509234600 | 68 | 180 | 3.0 | 0.0 | 0.00 | 0.00 | 0.00 | 78 | 1010.0 |
| 20260509234100 | 67 | 182 | 3.0 | 0.0 | 0.00 | 0.00 | 0.00 | 78 | 1010.1 |
| 20260509233600 | 67 | 126 | 2.0 | 0.0 | 0.00 | 0.00 | 0.00 | 79 | 1010.1 |
| 20260509233059 | 66 | 136 | 2.0 | 0.0 | 0.00 | 0.00 | 0.00 | 80 | 1010.1 |
| 20260509232600 | 66 | 173 | 2.0 | 0.0 | 0.00 | 0.00 | 0.00 | 80 | 1010.2 |
| 20260509232059 | 66 | 161 | 2.0 | 0.0 | 0.00 | 0.00 | 0.00 | 81 | 1010.2 |
| 20260509231609 | 66 | 188 | 2.0 | 0.0 | 0.00 | 0.00 | 0.00 | 79 | 1010.2 |
| 20260509231059 | 66 | 190 | 2.0 | 0.0 | 0.00 | 0.00 | 0.00 | 80 | 1010.1 |
| 20260509230604 | 66 | 155 | 3.0 | 0.0 | 0.00 | 0.00 | 0.00 | 81 | 1010.1 |
| 20260509230058 | 66 | 156 | 3.0 | 0.0 | 0.00 | 0.00 | 0.00 | 80 | 1010.1 |
| 20260509225558 | 66 | 196 | 3.0 | 0.0 | 0.00 | 0.00 | 0.00 | 80 | 1010.2 |
| 20260509225057 | 67 | 182 | 3.0 | 0.0 | 0.00 | 0.00 | 0.00 | 79 | 1010.2 |
| 20260509224558 | 67 | 213 | 3.0 | 0.0 | 0.00 | 0.00 | 0.00 | 79 | 1010.2 |
| 20260509224056 | 67 | 147 | 2.0 | 0.0 | 0.00 | 0.00 | 0.00 | 80 | 1010.3 |
| 20260509223555 | 67 | 212 | 3.0 | 0.0 | 0.00 | 0.00 | 0.00 | 81 | 1010.3 |
| 20260509223055 | 66 | 192 | 3.0 | 0.0 | 0.00 | 0.00 | 0.00 | 81 | 1010.3 |
| 20260509222552 | 66 | 207 | 3.0 | 0.0 | 0.00 | 0.00 | 0.00 | 82 | 1010.8 |
| 20260509222051 | 65 | 211 | 2.0 | 0.0 | 0.00 | 0.00 | 0.00 | 83 | 1010.8 |
| 20260509221551 | 65 | 166 | 3.0 | 0.0 | 0.00 | 0.00 | 0.00 | 84 | 1010.8 |
| 20260509221052 | 65 | 167 | 3.0 | 0.0 | 0.00 | 0.00 | 0.00 | 84 | 1010.9 |
| 20260509220551 | 64 | 211 | 3.0 | 0.0 | 0.00 | 0.00 | 0.00 | 85 | 1010.9 |
| 20260509220050 | 64 | 184 | 3.0 | 0.0 | 0.00 | 0.00 | 0.00 | 85 | 1010.9 |
| 20260509215554 | 64 | 190 | 3.0 | 0.0 | 0.00 | 0.00 | 0.00 | 84 | 1011.0 |
| 20260509215050 | 64 | 163 | 3.0 | 0.0 | 0.00 | 0.00 | 0.00 | 86 | 1011.0 |
| 20260509214549 | 64 | 181 | 3.0 | 0.0 | 0.00 | 0.00 | 0.00 | 85 | 1011.0 |
| 20260509214053 | 64 | 175 | 4.0 | 0.0 | 0.00 | 0.00 | 0.00 | 84 | 1011.1 |
| 20260509213549 | 65 | 157 | 4.0 | 0.0 | 0.00 | 0.00 | 0.00 | 85 | 1011.1 |
| 20260509213049 | 65 | 131 | 3.0 | 0.0 | 0.00 | 0.00 | 0.00 | 84 | 1011.1 |
| 20260509212548 | 65 | 136 | 3.0 | 0.0 | 0.00 | 0.00 | 0.00 | 84 | 1011.3 |
| 20260509212049 | 65 | 142 | 3.0 | 0.0 | 0.00 | 0.00 | 0.00 | 83 | 1011.3 |
| 20260509211555 | 65 | 160 | 3.0 | 0.0 | 0.00 | 0.00 | 0.00 | 83 | 1011.3 |
| 20260509211048 | 65 | 206 | 3.0 | 0.0 | 0.00 | 0.00 | 0.00 | 83 | 1011.4 |
| 20260509210548 | 65 | 239 | 3.0 | 0.0 | 0.00 | 0.00 | 0.00 | 83 | 1011.4 |
| 20260509210054 | 65 | 212 | 3.0 | 0.0 | 0.00 | 0.00 | 0.00 | 83 | 1011.4 |
| 20260509205545 | 65 | 188 | 3.0 | 0.0 | 0.00 | 0.00 | 0.00 | 84 | 1011.4 |
| 20260509205044 | 65 | 148 | 3.0 | 0.0 | 0.00 | 0.00 | 0.00 | 85 | 1011.4 |
| 20260509204546 | 64 | 175 | 3.0 | 0.0 | 0.00 | 0.00 | 0.00 | 86 | 1011.4 |
| 20260509204044 | 64 | 160 | 3.0 | 0.0 | 0.00 | 0.00 | 0.00 | 85 | 1011.5 |
| 20260509203545 | 64 | 178 | 3.0 | 0.0 | 0.00 | 0.00 | 0.00 | 85 | 1011.5 |
| 20260509203042 | 64 | 164 | 3.0 | 0.0 | 0.00 | 0.00 | 0.00 | 87 | 1011.5 |
| 20260509202541 | 63 | 198 | 3.0 | 0.0 | 0.00 | 0.00 | 0.00 | 88 | 1011.7 |
| 20260509202041 | 63 | 171 | 3.0 | 0.0 | 0.00 | 0.00 | 0.00 | 89 | 1011.7 |
| 20260509201539 | 63 | 181 | 3.0 | 0.0 | 0.00 | 0.00 | 0.00 | 89 | 1011.7 |
| 20260509201037 | 62 | 155 | 3.0 | 0.0 | 0.00 | 0.00 | 0.00 | 90 | 1011.9 |
| 20260509200538 | 62 | 211 | 4.0 | 0.0 | 0.00 | 0.00 | 0.00 | 89 | 1011.9 |
| 20260509200043 | 62 | 153 | 3.0 | 0.0 | 0.00 | 0.00 | 0.00 | 90 | 1011.9 |
| 20260509195538 | 62 | 167 | 3.0 | 0.0 | 0.00 | 0.00 | 0.00 | 90 | 1012.1 |
| 20260509195033 | 61 | 180 | 3.0 | 0.0 | 0.00 | 0.00 | 0.00 | 91 | 1012.1 |
| 20260509194535 | 61 | 161 | 3.0 | 0.0 | 0.00 | 0.00 | 0.00 | 90 | 1012.1 |
| 20260509194035 | 61 | 205 | 3.0 | 0.0 | 0.00 | 0.00 | 0.00 | 91 | 1012.2 |
| 20260509193533 | 61 | 198 | 4.0 | 0.0 | 0.00 | 0.00 | 0.00 | 91 | 1012.2 |
| 20260509193032 | 61 | 159 | 4.0 | 0.0 | 0.00 | 0.00 | 0.00 | 91 | 1012.2 |
| 20260509192531 | 61 | 179 | 4.0 | 0.0 | 0.00 | 0.00 | 0.00 | 92 | 1012.3 |
| 20260509192031 | 61 | 247 | 4.0 | 0.0 | 0.00 | 0.00 | 0.00 | 92 | 1012.3 |
| 20260509191530 | 61 | 169 | 3.0 | 0.0 | 0.00 | 0.00 | 0.00 | 92 | 1012.3 |
| 20260509191033 | 61 | 207 | 3.0 | 0.0 | 0.00 | 0.00 | 0.00 | 93 | 1012.2 |
| 20260509190531 | 61 | 159 | 3.0 | 0.0 | 0.00 | 0.00 | 0.00 | 94 | 1012.2 |
| 20260509190035 | 61 | 151 | 3.0 | 0.0 | 0.00 | 0.00 | 0.00 | 94 | 1012.2 |
| 20260509185531 | 61 | 195 | 3.0 | 0.0 | 0.00 | 0.00 | 0.00 | 94 | 1012.4 |
| 20260509185031 | 60 | 196 | 3.0 | 0.0 | 0.00 | 0.00 | 0.00 | 95 | 1012.4 |
| 20260509184534 | 60 | 204 | 3.0 | 0.0 | 0.00 | 0.00 | 0.00 | 95 | 1012.4 |
| 20260509184027 | 60 | 157 | 3.0 | 0.0 | 0.00 | 0.00 | 0.00 | 95 | 1012.5 |
| 20260509183526 | 60 | 161 | 3.0 | 0.0 | 0.00 | 0.00 | 0.00 | 96 | 1012.5 |
| 20260509183025 | 59 | 139 | 3.0 | 0.0 | 0.00 | 0.00 | 0.00 | 96 | 1012.5 |
| 20260509182524 | 59 | 179 | 3.0 | 0.0 | 0.00 | 0.00 | 0.00 | 96 | 1012.6 |
| 20260509182023 | 59 | 155 | 3.0 | 0.0 | 0.00 | 0.00 | 0.00 | 96 | 1012.6 |
| 20260509181523 | 59 | 175 | 2.0 | 0.0 | 0.00 | 0.00 | 0.00 | 96 | 1012.6 |
| 20260509181023 | 59 | 215 | 2.0 | 0.0 | 0.00 | 0.00 | 0.00 | 96 | 1012.7 |
| 20260509180522 | 58 | 164 | 2.0 | 0.0 | 0.00 | 0.00 | 0.00 | 96 | 1012.7 |
| 20260509180023 | 58 | 118 | 2.0 | 0.0 | 0.00 | 0.00 | 0.00 | 96 | 1012.7 |
| 20260509175518 | 57 | 163 | 2.0 | 0.0 | 0.00 | 0.00 | 0.00 | 96 | 1012.8 |
| 20260509175018 | 57 | 176 | 2.0 | 0.0 | 0.00 | 0.00 | 0.00 | 96 | 1012.8 |
| 20260509174519 | 57 | 183 | 1.0 | 0.0 | 0.00 | 0.00 | 0.00 | 96 | 1012.8 |
| 20260509174017 | 57 | 157 | 1.0 | 0.0 | 0.00 | 0.00 | 0.00 | 96 | 1012.8 |
| 20260509173517 | 57 | 173 | 2.0 | 0.0 | 0.00 | 0.00 | 0.00 | 96 | 1012.8 |
| 20260509173049 | 57 | 165 | 2.0 | 0.0 | 0.00 | 0.00 | 0.00 | 96 | 1012.8 |
| 20260509172517 | 57 | 201 | 2.0 | 0.0 | 0.00 | 0.00 | 0.00 | 96 | 1012.7 |
| 20260509172017 | 57 | 141 | 1.0 | 0.0 | 0.00 | 0.00 | 0.00 | 96 | 1012.7 |
| 20260509171526 | 57 | 174 | 1.0 | 0.0 | 0.00 | 0.00 | 0.00 | 96 | 1012.7 |
| 20260509171016 | 57 | 175 | 1.0 | 0.0 | 0.00 | 0.00 | 0.00 | 96 | 1012.4 |
| 20260509170516 | 57 | 28 | 2.0 | 0.0 | 0.00 | 0.00 | 0.00 | 96 | 1012.4 |
| 20260509170017 | 57 | 5 | 2.0 | 0.0 | 0.00 | 0.00 | 0.00 | 96 | 1012.4 |
| 20260509165515 | 57 | 36 | 2.0 | 0.0 | 0.00 | 0.00 | 0.00 | 96 | 1012.4 |
| 20260509165015 | 57 | 92 | 1.0 | 0.0 | 0.00 | 0.00 | 0.00 | 96 | 1012.4 |
| 20260509164517 | 57 | 27 | 1.0 | 0.0 | 0.00 | 0.00 | 0.00 | 96 | 1012.4 |
| 20260509164016 | 56 | 69 | 1.0 | 0.0 | 0.00 | 0.00 | 0.00 | 96 | 1012.5 |
| 20260509163513 | 56 | 73 | 1.0 | 0.0 | 0.00 | 0.00 | 0.00 | 96 | 1012.5 |
| 20260509163021 | 56 | 5 | 2.0 | 0.0 | 0.00 | 0.00 | 0.00 | 96 | 1012.5 |
| 20260509162513 | 56 | 30 | 2.0 | 0.0 | 0.00 | 0.00 | 0.00 | 96 | 1012.5 |
| 20260509162012 | 56 | 132 | 2.0 | 0.0 | 0.00 | 0.00 | 0.00 | 96 | 1012.5 |
| 20260509161512 | 56 | 105 | 2.0 | 0.0 | 0.00 | 0.00 | 0.00 | 96 | 1012.5 |
| 20260509161012 | 56 | 63 | 2.0 | 0.0 | 0.00 | 0.00 | 0.00 | 96 | 1012.4 |
| 20260509160512 | 56 | 57 | 1.0 | 0.0 | 0.00 | 0.00 | 0.00 | 96 | 1012.4 |
| 20260509160020 | 56 | 5 | 1.0 | 0.0 | 0.00 | 0.00 | 0.00 | 96 | 1012.4 |
| 20260509155510 | 56 | 32 | 1.0 | 0.0 | 0.00 | 0.00 | 0.00 | 96 | 1012.4 |
| 20260509155013 | 55 | 42 | 2.0 | 0.0 | 0.00 | 0.00 | 0.00 | 96 | 1012.4 |
| 20260509154510 | 55 | 44 | 3.0 | 0.0 | 0.00 | 0.00 | 0.00 | 96 | 1012.4 |
| 20260509154009 | 55 | 64 | 3.0 | 0.0 | 0.00 | 0.00 | 0.00 | 96 | 1012.5 |
| 20260509153509 | 55 | 63 | 2.0 | 0.0 | 0.00 | 0.00 | 0.00 | 96 | 1012.5 |
| 20260509153016 | 55 | 79 | 2.0 | 0.0 | 0.00 | 0.00 | 0.00 | 96 | 1012.5 |
| 20260509152509 | 55 | 69 | 2.0 | 0.0 | 0.00 | 0.00 | 0.00 | 96 | 1012.5 |
| 20260509152009 | 55 | 34 | 2.0 | 0.0 | 0.00 | 0.00 | 0.00 | 96 | 1012.5 |
| 20260509151509 | 55 | 61 | 2.0 | 0.0 | 0.00 | 0.00 | 0.00 | 96 | 1012.5 |
| 20260509151011 | 55 | 132 | 2.0 | 0.0 | 0.00 | 0.00 | 0.00 | 96 | 1012.4 |
| 20260509150508 | 55 | 50 | 2.0 | 0.0 | 0.00 | 0.00 | 0.00 | 96 | 1012.4 |
| 20260509150010 | 55 | 91 | 1.0 | 0.0 | 0.00 | 0.00 | 0.00 | 96 | 1012.4 |
| 20260509145508 | 55 | 26 | 1.0 | 0.0 | 0.00 | 0.00 | 0.00 | 96 | 1012.4 |
| 20260509145008 | 55 | 27 | 2.0 | 0.0 | 0.00 | 0.00 | 0.00 | 96 | 1012.4 |
| 20260509144507 | 55 | 24 | 3.0 | 0.0 | 0.00 | 0.00 | 0.00 | 96 | 1012.4 |
| 20260509144007 | 55 | 21 | 2.0 | 0.0 | 0.00 | 0.00 | 0.00 | 96 | 1012.3 |
| 20260509143509 | 55 | 67 | 1.0 | 0.0 | 0.00 | 0.00 | 0.00 | 96 | 1012.3 |
| 20260509143011 | 55 | 94 | 1.0 | 0.0 | 0.00 | 0.00 | 0.00 | 96 | 1012.3 |
| 20260509142506 | 55 | 30 | 2.0 | 0.0 | 0.00 | 0.00 | 0.00 | 96 | 1012.3 |
| 20260509142007 | 55 | 34 | 2.0 | 0.0 | 0.00 | 0.00 | 0.00 | 96 | 1012.3 |
| 20260509141507 | 54 | 67 | 2.0 | 0.0 | 0.00 | 0.00 | 0.00 | 96 | 1012.3 |
| 20260509141008 | 55 | 90 | 2.0 | 0.0 | 0.00 | 0.00 | 0.00 | 96 | 1012.2 |
| 20260509140506 | 54 | 71 | 2.0 | 0.0 | 0.00 | 0.00 | 0.00 | 96 | 1012.2 |
| 20260509140006 | 54 | 80 | 2.0 | 0.0 | 0.00 | 0.00 | 0.00 | 96 | 1012.2 |
| 20260509135506 | 54 | 26 | 2.0 | 0.0 | 0.00 | 0.00 | 0.00 | 96 | 1012.2 |
| 20260509135006 | 54 | 103 | 2.0 | 0.0 | 0.00 | 0.00 | 0.00 | 96 | 1012.2 |
| 20260509134506 | 54 | 24 | 2.0 | 0.0 | 0.00 | 0.00 | 0.00 | 96 | 1012.2 |
| 20260509134008 | 54 | 31 | 2.0 | 0.0 | 0.00 | 0.00 | 0.00 | 96 | 1012.1 |
| 20260509133506 | 54 | 37 | 2.0 | 0.0 | 0.00 | 0.00 | 0.00 | 96 | 1012.1 |
| 20260509133005 | 54 | 24 | 2.0 | 0.0 | 0.00 | 0.00 | 0.00 | 96 | 1012.1 |
| 20260509132505 | 54 | 55 | 2.0 | 0.0 | 0.00 | 0.00 | 0.00 | 96 | 1011.8 |
| 20260509132006 | 54 | 31 | 2.0 | 0.0 | 0.00 | 0.00 | 0.00 | 96 | 1011.8 |
| 20260509131505 | 54 | 63 | 3.0 | 0.0 | 0.00 | 0.00 | 0.00 | 96 | 1011.8 |
| 20260509131005 | 54 | 73 | 4.0 | 0.0 | 0.00 | 0.00 | 0.00 | 96 | 1011.7 |